Location: Trey
(46.7694°N, 6.9257°E)
Time: 19:07:22
(UTC+00:00)

Daily predictions for brighter satellites

Satellite Brightness Start Highest point End
(mag) Time Altitude Azimuth Time Altitude Azimuth Time Altitude Azimuth
CZ-4 R/B 4.4 17:45:07 10° SSE 17:49:16 82° ENE 17:53:27 10° NNW
COSMO-SKYMED 1 2.6 17:45:41 10° NNE 17:50:04 87° ESE 17:54:24 10° SSW
GP-B 4.4 17:47:59 10° ESE 17:51:15 20° ENE 17:54:30 10° NNE
Cosmos 1992 Rocket 4.5 17:49:42 10° S 17:54:31 39° ESE 17:59:21 10° NE
Cosmos 2263 Rocket 2.9 17:49:28 10° NNW 17:54:58 61° WSW 18:00:25 10° S
SL-16 R/B 2.3 17:49:24 10° S 17:54:58 62° ESE 18:00:36 10° NNE
Cosmos 1437 3.6 17:52:20 10° NNW 17:55:08 48° W 17:57:55 10° S
Cosmos 968 Rocket 3.5 17:50:37 10° NNW 17:55:55 75° ENE 18:01:11 10° SSE
ARGOS 3.4 17:51:47 10° SE 17:56:58 48° ENE 18:02:10 10° N
Cosmos 1486 Rocket 4.0 17:54:22 10° NNW 17:59:40 71° ENE 18:04:57 10° SSE
USA 234 4.2 17:54:22 10° ENE 17:59:50 28° SE 18:05:15 10° S
Cosmos 1515 3.8 17:56:22 10° N 18:00:07 51° ENE 18:03:51 10° SSE
Okean 1 3.5 17:56:16 10° N 18:00:13 50° ENE 18:04:09 10° SSE
Cosmos 1633 Rocket 3.0 17:58:07 10° S 18:02:30 70° E 18:06:56 10° NNE
Cosmos 2184 Rocket 4.0 17:56:28 10° S 18:02:36 78° E 18:08:50 10° N
SeaSat 1 3.2 17:58:31 10° NE 18:02:57 32° ESE 18:07:20 10° S
Okean 1-7 4.2 18:00:07 10° NNE 18:03:35 22° ENE 18:06:59 10° ESE
Cosmos 1707 Rocket 3.9 17:59:21 10° NNW 18:03:44 71° W 18:08:04 10° S
CZ-2C R/B 3.2 18:03:05 10° NNE 18:08:09 37° E 18:13:05 10° SSE
CZ-4 R/B 1.3 18:04:22 10° SSE 18:08:13 88° ENE 18:12:09 10° NNW
H-2A R/B 2.2 18:02:49 10° SSE 18:08:16 83° ENE 18:13:44 10° NNW
USA 305 4.2 18:06:48 10° WNW 18:10:42 33° N 18:14:37 10° NE
SAR-Lupe-4 3.9 18:07:20 10° NNE 18:10:47 41° E 18:14:11 10° S
IRS-1C Rocket 4.3 18:06:49 10° S 18:12:05 77° WSW 18:17:24 10° NNW
Gbstr 26 Del rocket 3.8 18:09:09 10° W 18:13:25 52° N 18:18:27 11° ENE
Cosmos 2237 4.5 18:08:52 10° S 18:14:19 48° ESE 18:19:49 10° NE
Meteor 1-20 Rocket 4.2 18:09:22 10° SSW 18:14:50 85° W 18:20:22 10° N
SL-4 R/B 2.5 18:12:45 10° WNW 18:16:07 38° N 18:18:38 15° ENE
USA 307 4.2 18:18:09 10° WNW 18:22:03 32° N 18:25:41 11° NE
ATLAS CENTAUR R/B 1.5 18:20:34 10° S 18:23:57 39° ESE 18:26:57 13° NE
FALCON 9 DEB 3.3 18:20:39 10° WNW 18:24:03 59° NNE 18:26:13 20° E
USA 186 3.2 18:25:07 14° NE 18:25:07 14° NE 18:25:55 10° NNE
USA 306 4.2 18:21:38 10° WNW 18:25:28 32° N 18:28:56 12° NE
Cosmos 1354 Rocket 4.0 18:21:09 10° NNW 18:26:22 60° ENE 18:31:32 10° SE
Cosmos 44 Rocket 3.8 18:22:31 10° NW 18:27:45 70° WSW 18:32:54 10° SSE
Okean-O 2.9 18:23:39 10° S 18:28:04 72° WSW 18:32:30 10° NNW
ERS-2 2.0 18:24:25 10° NNE 18:28:05 75° ESE 18:31:44 10° S
CSL-04 Rocket 3.7 18:23:54 10° SSE 18:29:24 72° ENE 18:34:55 10° N
Cosmos 1844 Rocket 2.7 18:24:32 10° NNW 18:30:04 61° ENE 18:35:34 10° SE
Cosmos 2084 Rocket 3.5 18:25:51 10° NW 18:30:13 83° SW 18:34:43 10° SE
SAR-Lupe-1 3.9 18:26:37 10° NNE 18:30:14 76° ESE 18:33:49 10° S
CSL-04 Debris 4.1 18:25:20 10° SSE 18:30:45 78° ENE 18:36:15 10° NNW
USA 308 4.2 18:28:51 10° WNW 18:32:42 31° N 18:35:51 14° NE
Cosmos 1666 3.4 18:30:30 10° SSE 18:33:45 29° E 18:37:02 10° NNE
HJ-1C 3.5 18:32:42 10° S 18:36:00 75° WSW 18:39:20 10° NNW
Cosmos 1503 Rocket 3.9 18:31:23 10° NNW 18:36:37 83° ENE 18:41:47 10° SSE
Cosmos 2341 Rocket 4.1 18:31:36 10° SSE 18:37:41 53° E 18:43:45 10° NNE
Meteor 1-5 Rocket 4.3 18:32:53 10° SSE 18:38:01 48° E 18:43:18 10° NNE
PSLV R/B 4.3 18:35:06 10° N 18:39:11 67° WNW 18:43:12 10° SSW
Cosmos 1470 Rocket 3.7 18:37:15 10° SSW 18:41:43 80° W 18:46:12 10° N
Cosmos 1844 3.7 18:36:08 10° NNW 18:41:54 63° ENE 18:46:58 13° SE
Okean 3 4.4 18:38:35 10° NNE 18:42:13 27° ENE 18:42:56 25° E
CZ-4B R/B 4.2 18:40:46 10° NNW 18:43:03 19° WNW 18:45:19 10° WSW
Cosmos 2360 Rocket 2.1 18:38:45 10° SSW 18:44:20 69° ESE 18:49:59 10° NNE
Ariane Rocket 3.6 18:42:04 20° ESE 18:44:54 35° ENE 18:49:31 10° N
Cosmos 2278 Rocket 3.5 18:42:48 10° N 18:47:04 21° NE 18:48:36 19° ENE
Cosmos 1500 3.2 18:48:43 10° SSW 18:52:26 76° W 18:56:11 10° N
Meteor 2-4 Rocket 3.8 18:48:05 10° N 18:53:57 90° ENE 18:59:54 10° S
Cosmos 1703 Rocket 3.4 18:49:46 10° N 18:54:11 74° E 18:58:32 10° SSE
Cosmos 2333 Rocket 2.6 18:49:23 10° S 18:54:33 37° ESE 18:59:46 10° NE
Cosmos 2218 Rocket 4.2 18:50:11 10° SSE 18:56:17 48° E 19:02:23 10° NNE
Cosmos 1689 Rocket 3.7 18:53:53 10° N 18:56:33 34° WNW 18:59:12 10° SW
SL-08 RB Rocket 3.9 18:52:10 10° S 18:56:39 71° WSW 19:01:14 10° NNW
ERBS 4.4 18:57:50 10° WNW 19:00:30 22° NNW 19:02:19 15° NNE
Cosmos 1933 Rocket 3.7 18:58:18 10° SSW 19:02:38 72° W 19:07:02 10° N
Aureole 2 Rocket 4.1 19:02:53 10° NW 19:04:58 22° WSW 19:06:52 11° SSW
Resurs 01 Rocket 3.0 19:12:41 24° NE 19:12:41 24° NE 19:15:16 10° N
Cosmos 2242 Rocket 4.0 19:07:44 10° NNW 19:12:13 65° W 19:16:37 10° S
Cosmos 864 Rocket 4.4 19:07:01 10° S 19:13:01 59° E 19:19:08 10° NNE
Cosmos 2322 Rocket 3.3 19:09:09 10° SW 19:14:30 44° NW 19:19:54 10° NNE
Lacrosse 4 Rocket 2.7 19:12:15 10° S 19:14:29 26° SSE 19:14:29 26° SSE
Abrixas rocket 3.4 19:14:37 10° WNW 19:16:07 30° WNW 19:16:07 30° WNW
SME Rocket 4.1 19:10:13 10° NNE 19:18:26 67° E 19:23:43 10° S
Cosmos 1959 Rocket 4.3 19:12:25 10° S 19:18:26 67° E 19:24:31 10° NNE
FALCON 9 DEB 4.5 19:18:20 10° NW 19:20:46 28° N 19:20:46 28° N
Cosmos 192 4.2 19:16:53 10° S 19:21:44 67° ESE 19:26:38 10° NNE
SJ-6B 2.8 19:22:30 40° S 19:23:54 84° WSW 19:27:59 10° NNW
COSMOS 2428 2.8 19:19:09 10° S 19:24:33 47° ESE 19:24:51 47° E
ASTEX 1 3.2 19:22:39 10° N 19:27:34 72° E 19:30:11 27° S
GP-B 4.3 19:24:02 10° SSW 19:28:14 43° W 19:32:29 10° NNW
MOS 1 4.2 19:25:33 28° SSE 19:28:43 81° ENE 19:34:26 10° NNW
Meteor 1-23 Rocket 4.2 19:24:16 10° N 19:29:45 55° ENE 19:30:27 52° ESE
Cosmos 2219 Rocket 2.1 19:25:59 10° SSW 19:31:29 63° ESE 19:37:03 10° NNE
Meteor 1-11 Rocket 3.6 19:25:58 10° S 19:31:41 78° E 19:37:18 10° NNE
OBJECT-B 2.2 19:36:26 35° NNW 19:36:26 35° NNW 19:38:27 10° NNW
Resurs 1-3 3.6 19:38:47 69° NNE 19:38:47 69° NNE 19:42:46 10° N
SL-16 R/B 4.2 19:34:48 10° WSW 19:39:32 26° NW 19:44:17 10° N
SeaSat 1 3.6 19:35:53 10° NNE 19:40:32 42° NW 19:45:09 10° WSW
SJ 16-02 2.4 19:36:41 10° N 19:39:34 34° NNE 19:39:34 34° NNE
Okean 1-7 4.4 19:37:13 10° NNW 19:41:17 38° W 19:45:17 10° SSW
USA 234 3.1 19:39:54 31° NE 19:43:25 87° SE 19:49:58 10° SW
Cosmos 1066 Rocket 4.2 19:37:56 10° N 19:43:41 90° E 19:45:41 43° S
CZ-2C R/B 4.2 19:43:27 10° N 19:48:24 35° WNW 19:53:13 10° SW
Meteor 2-20 Rocket 4.5 19:43:18 10° N 19:49:08 57° ENE 19:49:08 57° ENE
IRS-1A Rocket 4.5 19:46:43 28° S 19:49:45 68° WSW 19:55:18 10° NNW
USA 305 4.2 19:47:32 10° NW 19:50:56 33° N 19:50:56 33° N
Cosmos 2322 3.8 19:45:48 10° SSW 19:51:32 75° WNW 19:57:17 10° NNE
BREEZE-M DEB (TANK) 2.8 19:48:38 10° WNW 19:51:09 65° NNW 19:51:09 65° NNW
SL-4 R/B 3.6 19:52:25 10° WNW 19:54:13 28° WNW 19:54:13 28° WNW
Gbstr 26 Del rocket 3.9 19:56:13 10° WNW 20:00:59 54° N 20:00:59 54° N
USA 307 4.4 19:58:52 10° NW 20:01:49 31° NNW 20:01:49 31° NNW
ATLAS CENTAUR R/B 3.2 19:59:57 10° W 20:02:57 23° NW 20:03:11 23° NNW
USA 306 4.5 20:02:14 10° NW 20:05:03 31° NNW 20:05:03 31° NNW
SPOT 3 Rocket 4.0 20:18:37 59° NW 20:18:37 59° NW 20:22:57 10° NNW
NOSS 3-3 (A) 4.4 20:10:30 10° NW 20:17:59 77° NE 20:18:42 72° E
NOSS 3-3 (C) 4.4 20:10:36 10° NW 20:18:04 76° NE 20:18:47 71° E
Ariane Rocket 4.5 20:22:15 27° SW 20:23:51 34° W 20:28:29 10° NNW
Cosmos 2360 Rocket 4.3 20:24:19 10° W 20:28:52 24° NW 20:33:28 10° N
Cosmos 2278 Rocket 2.8 20:26:10 10° NNW 20:30:28 53° NW 20:30:28 53° NW
Cosmos 2333 Rocket 3.4 20:33:28 10° WSW 20:38:47 40° NW 20:44:11 10° NNE
Resurs 01 Rocket 4.0 20:50:14 21° NW 20:50:14 21° NW 20:51:59 10° NNW
Cosmos 1943 Rocket 4.1 20:46:10 10° NNW 20:48:24 21° N 20:48:24 21° N
COSMOS 2428 4.4 21:03:56 10° WSW 21:14:00 11° NNE 21:14:08 10° NNE
Cosmos 2219 Rocket 4.1 21:11:17 10° WSW 21:15:53 26° NW 21:20:33 10° N
SJ 16-02 4.4 21:16:05 10° NW 21:16:35 12° WNW 21:16:35 12° WNW
USA 234 4.2 21:27:15 41° NW 21:27:15 41° NW 21:32:15 10° W
